sat.trackr.live / text

‹ back to catalog

STARLINK-30893

NORAD 58724 · 2024-002V

PAYLOAD ACTIVE UNKNOWN

§ Identity

Operator
Country
US
Launch date
2024-01-03
Launch site
AFWTR
Launch vehicle
Mass (kg)
RCS (m²)

Purposes: comms

External: N2YO · Heavens-Above · Gunter

§ Orbital elements

Epoch: 2026-09-20T21:37:18.413184Z

Period
93.85 min
Inclination
53.1596°
Eccentricity
0.0000981
Mean motion
15.34382219 rev/d
Perigee alt
462.1 km
Apogee alt
463.4 km
Semi-major
6,840.9 km
B*
2.8645e-5
RAAN
39.6134°
Arg perigee
104.9115°
Mean anomaly
255.1997°
Rev number
15,194

§ Raw data

STARLINK-308931 58724U 24002V   26263.90090756  .00000591  00000+0  28645-4 0  99922 58724  53.1596  39.6134 0000981 104.9115 255.1997 15.34382219151948

JSON: /api/v1/satellites/58724 · /tle

For live sub-satellite position, see the globe view (requires WebGL).

§ Visibility from observer

Set your observer location to see the next 7 days of passes ≥ 10°. The values pass through the URL so the page stays shareable.

No JS? Fill the form by hand. The geolocation button needs JavaScript.